Simultaneous Nadir Overpasses (SNOs) Predictions

Prediction of SNOs between NOAA-20 and METOP-B Satellite Orbit:

Table of predicted SNOs for the next 14.0 days since TLE Epoch: 1/5/2019
Index Date (NOAA-20) Time (NOAA-20) Lat,Lon (NOAA-20) SZA (NOAA-20 ) Date (METOP-B) Time (METOP-B) Lat,Lon (METOP-B) SZA (METOP-B ) Distance(km) Time Diff (sec)
1 01/07/2019 00:06:23 73.55, 168.40 96.19 01/07/2019 00:07:29 73.47, 171.23 95.97 89.56 66
2 01/07/2019 00:57:05 -73.44, -24.04 83.93 01/07/2019 00:58:13 -73.37, -21.67 84.13 75.85 68
3 01/07/2019 01:47:46 73.20, 143.81 95.80 01/07/2019 01:48:57 73.15, 145.17 95.67 44.09 71
4 01/07/2019 02:38:29 -73.15, -48.75 84.27 01/07/2019 02:39:40 -73.10, -47.60 84.38 37.49 71
5 01/07/2019 03:29:11 72.95, 118.98 95.52 01/07/2019 03:30:24 72.88, 119.25 95.42 12.08 73
6 01/07/2019 04:19:53 -72.85, -73.48 84.60 01/07/2019 04:21:07 -72.83, -73.51 84.63 1.89 74
7 01/07/2019 05:10:39 72.85, 93.82 95.41 01/07/2019 05:11:46 72.86, 93.87 95.39 1.91 67
8 01/07/2019 06:01:23 -72.85, -98.86 84.61 01/07/2019 06:02:28 -72.87, -98.79 84.61 3.05 65
9 01/07/2019 06:52:09 72.86, 68.44 95.40 01/07/2019 06:53:08 72.84, 68.49 95.37 2.48 59
10 01/07/2019 07:42:53 -72.85,-124.24 84.61 01/07/2019 07:43:50 -72.85,-124.16 84.63 2.55 57
11 01/07/2019 08:33:38 72.81, 43.16 95.34 01/07/2019 08:34:30 72.82, 43.12 95.35 2.33 52
12 01/07/2019 09:24:22 -72.80,-149.51 84.67 01/07/2019 09:25:12 -72.83,-149.54 84.66 3.05 50
13 01/07/2019 10:15:08 72.81, 17.79 95.33 01/07/2019 10:15:52 72.80, 17.74 95.32 1.66 44
14 01/07/2019 11:05:52 -72.81,-174.89 84.68 01/07/2019 11:06:34 -72.81,-174.92 84.68 1.08 42
15 01/07/2019 11:56:38 72.81, -7.59 95.33 01/07/2019 11:57:14 72.79, -7.64 95.30 3.25 36
16 01/07/2019 12:47:22 -72.81, 159.73 84.69 01/07/2019 12:47:56 -72.79, 159.70 84.71 1.79 34
17 01/07/2019 13:38:07 72.81, -32.97 95.32 01/07/2019 13:38:34 72.82, -32.91 95.32 2.10 27
18 01/07/2019 14:28:51 -72.81, 134.35 84.69 01/07/2019 14:29:16 -72.83, 134.43 84.69 3.26 25
19 01/07/2019 15:19:37 72.82, -58.35 95.31 01/07/2019 15:19:56 72.80, -58.29 95.29 2.78 19
20 01/07/2019 16:10:21 -72.81, 108.97 84.70 01/07/2019 16:10:38 -72.81, 109.05 84.71 2.84 17
21 01/07/2019 17:01:06 72.77, -83.63 95.25 01/07/2019 17:01:18 72.78, -83.67 95.27 2.02 12
22 01/07/2019 17:51:50 -72.77, 83.70 84.76 01/07/2019 17:52:00 -72.79, 83.68 84.74 2.92 10
23 01/07/2019 18:42:36 72.77,-109.01 95.25 01/07/2019 18:42:40 72.76,-109.05 95.24 1.50 4
24 01/07/2019 19:33:20 -72.77, 58.32 84.77 01/07/2019 19:33:22 -72.77, 58.30 84.76 0.82 2
25 01/07/2019 20:24:06 72.77,-134.39 95.24 01/07/2019 20:24:02 72.75,-134.42 95.22 3.31 4
26 01/07/2019 21:14:50 -72.77, 32.94 84.77 01/07/2019 21:14:44 -72.76, 32.92 84.79 1.73 6
27 01/07/2019 22:05:36 72.78,-159.77 95.23 01/07/2019 22:05:23 72.78,-159.70 95.24 2.34 13
28 01/07/2019 22:56:20 -72.77, 7.56 84.78 01/07/2019 22:56:05 -72.79, 7.65 84.77 3.49 15
29 01/07/2019 23:47:06 72.78, 174.85 95.23 01/07/2019 23:46:45 72.76, 174.93 95.21 3.12 21
30 01/08/2019 00:37:50 -72.77, -17.82 84.79 01/08/2019 00:37:27 -72.77, -17.73 84.79 3.16 23
31 01/08/2019 01:28:35 72.73, 149.58 95.17 01/08/2019 01:28:07 72.74, 149.55 95.19 1.69 28
32 01/08/2019 02:19:19 -72.73, -43.10 84.85 01/08/2019 02:18:49 -72.75, -43.11 84.82 2.81 30
33 01/08/2019 03:10:05 72.73, 124.20 95.16 01/08/2019 03:09:29 72.72, 124.17 95.16 1.38 36
34 01/08/2019 04:00:49 -72.73, -68.48 84.85 01/08/2019 04:00:11 -72.73, -68.48 84.84 0.58 38
35 01/08/2019 04:51:35 72.73, 98.82 95.15 01/08/2019 04:50:51 72.71, 98.79 95.14 3.39 44
36 01/08/2019 05:42:19 -72.73, -93.85 84.86 01/08/2019 05:41:33 -72.72, -93.86 84.87 1.73 46
37 01/08/2019 06:33:05 72.74, 73.44 95.15 01/08/2019 06:32:12 72.74, 73.52 95.16 2.62 53
38 01/08/2019 07:23:49 -72.73,-119.23 84.87 01/08/2019 07:22:54 -72.75,-119.13 84.85 3.75 55
39 01/08/2019 08:14:35 72.74, 48.06 95.14 01/08/2019 08:13:34 72.72, 48.14 95.13 3.47 61
40 01/08/2019 09:05:19 -72.74,-144.61 84.87 01/08/2019 09:04:16 -72.73,-144.51 84.87 3.50 63
41 01/08/2019 09:56:04 72.69, 22.79 95.08 01/08/2019 09:54:56 72.70, 22.77 95.10 1.35 68
42 01/08/2019 10:46:48 -72.69,-169.89 84.93 01/08/2019 10:45:38 -72.71,-169.89 84.90 2.73 70
43 01/08/2019 11:37:33 72.64, -2.49 95.02 01/08/2019 11:36:19 72.63, -2.72 95.03 7.70 74
44 01/08/2019 12:28:16 -72.59, 164.94 85.05 01/08/2019 12:27:02 -72.59, 164.53 85.01 13.70 74
45 01/08/2019 13:18:57 72.34, -27.25 94.68 01/08/2019 13:17:46 72.36, -28.61 94.78 45.78 71
46 01/08/2019 14:09:40 -72.29, 140.17 85.39 01/08/2019 14:08:30 -72.27, 138.54 85.31 55.14 70
47 01/08/2019 15:00:21 72.03, -52.03 94.34 01/08/2019 14:59:14 72.03, -54.58 94.48 87.35 67
48 01/08/2019 15:51:04 -71.98, 115.38 85.72 01/08/2019 15:49:57 -72.00, 112.68 85.56 93.09 67




NCC Satellite Simultaneous Nadir Overpasses (SNOs) Prediction Service
